| time (UTC) | temp F | wind direction | speed MPH | gust MPH | rain 1hr in | rain 24hr in | rain mn in | humidity % | barometer mb |
| 20260505201837 | 51 | 336 | 2.0 | 5.0 | 0.06 | 0.24 | 0.24 | 98 | 1008.9 |
| 20260505200837 | 51 | 338 | 1.0 | 5.0 | 0.06 | 0.23 | 0.23 | 98 | 1008.9 |
| 20260505195838 | 51 | 345 | 2.0 | 5.0 | 0.06 | 0.22 | 0.22 | 98 | 1008.9 |
| 20260505194846 | 51 | 319 | 2.0 | 6.0 | 0.05 | 0.21 | 0.21 | 98 | 1008.8 |
| 20260505193837 | 51 | 342 | 2.0 | 5.0 | 0.06 | 0.20 | 0.20 | 98 | 1008.7 |
| 20260505192837 | 51 | 321 | 2.0 | 5.0 | 0.06 | 0.19 | 0.19 | 97 | 1008.7 |
| 20260505192336 | 51 | 8 | 2.0 | 5.0 | 0.06 | 0.19 | 0.19 | 97 | 1008.6 |
| 20260505191336 | 51 | 336 | 2.0 | 5.0 | 0.06 | 0.18 | 0.18 | 97 | 1008.6 |
| 20260505190337 | 51 | 1 | 2.0 | 5.0 | 0.06 | 0.17 | 0.17 | 97 | 1008.6 |
| 20260505185838 | 51 | 328 | 2.0 | 2.0 | 0.06 | 0.16 | 0.16 | 97 | 1008.6 |
| 20260505185336 | 51 | 21 | 2.0 | 5.0 | 0.06 | 0.16 | 0.16 | 97 | 1008.6 |
| 20260505184337 | 51 | 333 | 2.0 | 5.0 | 0.06 | 0.14 | 0.14 | 97 | 1008.6 |
| 20260505182336 | 51 | 8 | 2.0 | 5.0 | 0.07 | 0.13 | 0.13 | 97 | 1008.6 |
| 20260505181336 | 51 | 340 | 2.0 | 5.0 | 0.07 | 0.12 | 0.12 | 97 | 1008.6 |
| 20260505180336 | 51 | 17 | 2.0 | 5.0 | 0.07 | 0.11 | 0.11 | 97 | 1008.6 |
| 20260505175838 | 52 | 21 | 3.0 | 6.0 | 0.07 | 0.10 | 0.10 | 97 | 1008.6 |
| 20260505175336 | 52 | 8 | 3.0 | 6.0 | 0.07 | 0.10 | 0.10 | 97 | 1008.7 |
| 20260505174837 | 52 | 13 | 3.0 | 6.0 | 0.07 | 0.09 | 0.09 | 97 | 1008.7 |
| 20260505173836 | 52 | 21 | 2.0 | 9.0 | 0.06 | 0.07 | 0.07 | 96 | 1008.7 |
| 20260505173336 | 52 | 3 | 2.0 | 7.0 | 0.06 | 0.07 | 0.07 | 97 | 1008.7 |
| 20260505172337 | 52 | 20 | 2.0 | 9.0 | 0.05 | 0.06 | 0.06 | 96 | 1008.7 |
| 20260505170836 | 52 | 15 | 2.0 | 6.0 | 0.04 | 0.05 | 0.05 | 96 | 1008.7 |
| 20260505170343 | 53 | 34 | 2.0 | 5.0 | 0.03 | 0.04 | 0.04 | 96 | 1008.7 |
| 20260505165339 | 53 | 356 | 3.0 | 6.0 | 0.02 | 0.03 | 0.03 | 96 | 1008.8 |
| 20260505163836 | 53 | 22 | 3.0 | 7.0 | 0.00 | 0.01 | 0.01 | 95 | 1008.9 |
| 20260505163337 | 53 | 354 | 3.0 | 6.0 | 0.00 | 0.01 | 0.01 | 95 | 1008.9 |
| 20260505161836 | 53 | 57 | 2.0 | 5.0 | 0.00 | 0.01 | 0.01 | 95 | 1008.8 |
| 20260505160337 | 54 | 56 | 2.0 | 6.0 | 0.00 | 0.01 | 0.01 | 95 | 1008.9 |
| 20260505152838 | 54 | 35 | 3.0 | 9.0 | 0.00 | 0.03 | 0.01 | 95 | 1009.0 |
| 20260505151837 | 54 | 24 | 3.0 | 10.0 | 0.00 | 0.03 | 0.01 | 95 | 1009.0 |
| 20260505151336 | 54 | 25 | 3.0 | 8.0 | 0.00 | 0.03 | 0.01 | 95 | 1009.0 |
| 20260505150836 | 54 | 27 | 4.0 | 8.0 | 0.00 | 0.03 | 0.01 | 95 | 1009.0 |
| 20260505150337 | 54 | 7 | 5.0 | 7.0 | 0.00 | 0.04 | 0.01 | 95 | 1009.0 |
| 20260505121836 | 57 | 21 | 6.0 | 7.0 | 0.01 | 0.16 | 0.01 | 95 | 1009.6 |
| 20260505115838 | 57 | 20 | 5.0 | 9.0 | 0.01 | 0.16 | 0.01 | 94 | 1009.6 |
| 20260505115336 | 57 | 41 | 5.0 | 7.0 | 0.00 | 0.15 | 0.00 | 93 | 1009.7 |
| 20260505114836 | 57 | 3 | 5.0 | 7.0 | 0.00 | 0.15 | 0.00 | 93 | 1009.7 |
| 20260505114336 | 58 | 33 | 5.0 | 10.0 | 0.00 | 0.15 | 0.00 | 92 | 1009.7 |
| 20260505112336 | 59 | 44 | 2.0 | 9.0 | 0.00 | 0.15 | 0.00 | 89 | 1009.7 |
| 20260505111836 | 59 | 81 | 1.0 | 5.0 | 0.00 | 0.15 | 0.00 | 90 | 1009.7 |
| 20260505111336 | 59 | 74 | 0.0 | 5.0 | 0.00 | 0.15 | 0.00 | 90 | 1009.7 |
| 20260505110836 | 59 | 78 | 1.0 | 5.0 | 0.00 | 0.15 | 0.00 | 90 | 1009.8 |
| 20260505101836 | 59 | 34 | 2.0 | 3.0 | 0.00 | 0.15 | 0.00 | 88 | 1009.9 |
| 20260505100835 | 59 | 43 | 1.0 | 6.0 | 0.00 | 0.15 | 0.00 | 89 | 1010.0 |
| 20260505100336 | 59 | 42 | 0.0 | 5.0 | 0.00 | 0.15 | 0.00 | 90 | 1010.0 |
| 20260505095838 | 59 | 19 | 0.0 | 5.0 | 0.00 | 0.15 | 0.00 | 89 | 1010.0 |
| 20260505095336 | 59 | 60 | 0.0 | 2.0 | 0.00 | 0.15 | 0.00 | 90 | 1010.0 |
| 20260505094836 | 59 | 120 | 0.0 | 2.0 | 0.00 | 0.15 | 0.00 | 90 | 1010.0 |
| 20260505094337 | 58 | 157 | 0.0 | 2.0 | 0.00 | 0.15 | 0.00 | 91 | 1010.0 |
| 20260505093836 | 58 | 157 | 0.0 | 1.0 | 0.00 | 0.15 | 0.00 | 91 | 1010.0 |
| 20260505092838 | 58 | 177 | 0.0 | 3.0 | 0.00 | 0.15 | 0.00 | 91 | 1010.0 |
| 20260505085336 | 58 | 134 | 0.0 | 2.0 | 0.00 | 0.15 | 0.00 | 92 | 1010.2 |
| 20260505084836 | 58 | 93 | 0.0 | 2.0 | 0.00 | 0.15 | 0.00 | 93 | 1010.2 |
| 20260505082839 | 57 | 77 | 0.0 | 2.0 | 0.00 | 0.15 | 0.00 | 94 | 1010.3 |
| 20260505082336 | 57 | 59 | 0.0 | 2.0 | 0.00 | 0.15 | 0.00 | 95 | 1010.3 |
| 20260505081836 | 57 | 64 | 0.0 | 2.0 | 0.00 | 0.15 | 0.00 | 95 | 1010.3 |
| 20260505080836 | 57 | 301 | 0.0 | 0.0 | 0.00 | 0.15 | 0.00 | 95 | 1010.4 |
| 20260505073844 | 56 | 306 | 0.0 | 2.0 | 0.00 | 0.15 | 0.00 | 98 | 1010.4 |
| 20260505073335 | 56 | 180 | 0.0 | 2.0 | 0.00 | 0.15 | 0.00 | 98 | 1010.4 |
| 20260505072839 | 56 | 185 | 0.0 | 3.0 | 0.00 | 0.15 | 0.00 | 98 | 1010.4 |
| 20260505071836 | 56 | 295 | 0.0 | 2.0 | 0.00 | 0.15 | 0.00 | 99 | 1010.6 |
| 20260505071336 | 56 | 274 | 0.0 | 3.0 | 0.00 | 0.15 | 0.00 | 98 | 1010.6 |
| 20260505070336 | 55 | 119 | 0.0 | 2.0 | 0.00 | 0.15 | 0.00 | 99 | 1010.6 |
| 20260505065838 | 55 | 119 | 0.0 | 2.0 | 0.00 | 0.15 | 0.00 | 99 | 1010.6 |
| 20260505064836 | 55 | 112 | 0.0 | 1.0 | 0.00 | 0.15 | 0.00 | 99 | 1010.6 |
| 20260505064336 | 55 | 107 | 0.0 | 3.0 | 0.00 | 0.15 | 0.00 | 99 | 1010.6 |
| 20260505063836 | 55 | 48 | 0.0 | 2.0 | 0.00 | 0.15 | 0.00 | 99 | 1010.7 |
| 20260505063336 | 55 | 157 | 0.0 | 3.0 | 0.00 | 0.15 | 0.00 | 99 | 1010.7 |
| 20260505062840 | 55 | 281 | 0.0 | 5.0 | 0.00 | 0.15 | 0.00 | 99 | 1010.7 |
| 20260505062335 | 55 | 108 | 0.0 | 5.0 | 0.00 | 0.15 | 0.00 | 99 | 1010.7 |
| 20260505061836 | 55 | 130 | 0.0 | 0.0 | 0.00 | 0.15 | 0.00 | 99 | 1010.7 |
| 20260505061336 | 54 | 130 | 0.0 | 2.0 | 0.00 | 0.15 | 0.00 | 99 | 1010.7 |
| 20260505055838 | 54 | 186 | 0.0 | 2.0 | 0.00 | 0.15 | 0.00 | 99 | 1010.8 |
| 20260505054836 | 54 | 137 | 0.0 | 1.0 | 0.00 | 0.15 | 0.00 | 99 | 1010.8 |
| 20260505053835 | 54 | 139 | 0.0 | 2.0 | 0.00 | 0.15 | 0.00 | 99 | 1010.8 |
| 20260505053336 | 54 | 139 | 0.0 | 2.0 | 0.00 | 0.15 | 0.00 | 99 | 1010.8 |
| 20260505051836 | 54 | 103 | 0.0 | 0.0 | 0.00 | 0.15 | 0.00 | 99 | 1010.8 |
| 20260505051335 | 54 | 103 | 0.0 | 1.0 | 0.00 | 0.15 | 0.00 | 99 | 1010.8 |
| 20260505050336 | 53 | 87 | 0.0 | 0.0 | 0.00 | 0.15 | 0.00 | 99 | 1010.8 |
| 20260505041336 | 53 | 81 | 0.0 | 2.0 | 0.00 | 0.15 | 0.00 | 98 | 1010.8 |
| 20260505040835 | 53 | 278 | 0.0 | 0.0 | 0.00 | 0.15 | 0.00 | 98 | 1010.7 |
| 20260505035837 | 53 | 278 | 0.0 | 0.0 | 0.00 | 0.15 | 0.00 | 98 | 1010.7 |
| 20260505035336 | 53 | 278 | 0.0 | 0.0 | 0.00 | 0.15 | 0.00 | 98 | 1010.9 |
| 20260505034836 | 53 | 278 | 0.0 | 0.0 | 0.00 | 0.15 | 0.00 | 98 | 1010.9 |
| 20260505033336 | 53 | 278 | 0.0 | 0.0 | 0.00 | 0.15 | 0.00 | 98 | 1011.0 |
| 20260505032336 | 53 | 278 | 0.0 | 0.0 | 0.00 | 0.15 | 0.00 | 98 | 1011.1 |
| 20260505031336 | 53 | 278 | 0.0 | 0.0 | 0.00 | 0.15 | 0.00 | 98 | 1011.1 |
| 20260505030335 | 53 | 278 | 0.0 | 0.0 | 0.00 | 0.15 | 0.00 | 98 | 1011.3 |
| 20260505022837 | 53 | 278 | 0.0 | 0.0 | 0.00 | 0.15 | 0.00 | 98 | 1011.6 |
| 20260505020835 | 53 | 278 | 0.0 | 0.0 | 0.00 | 0.15 | 0.00 | 98 | 1011.5 |
| 20260505020336 | 53 | 278 | 0.0 | 0.0 | 0.00 | 0.15 | 0.00 | 98 | 1011.5 |
| 20260505014336 | 53 | 278 | 0.0 | 0.0 | 0.00 | 0.15 | 0.00 | 98 | 1011.5 |
| 20260505013835 | 54 | 278 | 0.0 | 0.0 | 0.00 | 0.15 | 0.00 | 98 | 1011.7 |
| 20260505012336 | 54 | 278 | 0.0 | 0.0 | 0.00 | 0.15 | 0.00 | 98 | 1011.7 |
| 20260505011336 | 54 | 278 | 0.0 | 0.0 | 0.00 | 0.15 | 0.00 | 97 | 1011.7 |
| 20260505010836 | 54 | 278 | 0.0 | 0.0 | 0.00 | 0.15 | 0.00 | 97 | 1011.7 |
| 20260505005336 | 54 | 278 | 0.0 | 2.0 | 0.00 | 0.15 | 0.00 | 97 | 1011.8 |
| 20260505004336 | 54 | 278 | 0.0 | 0.0 | 0.00 | 0.15 | 0.00 | 97 | 1011.8 |
| 20260505003836 | 54 | 278 | 0.0 | 0.0 | 0.00 | 0.15 | 0.00 | 97 | 1012.0 |
| 20260505003335 | 54 | 278 | 0.0 | 0.0 | 0.00 | 0.15 | 0.00 | 97 | 1012.0 |
| 20260505002838 | 54 | 278 | 0.0 | 0.0 | 0.00 | 0.15 | 0.00 | 97 | 1012.0 |
| 20260505002337 | 54 | 278 | 0.0 | 0.0 | 0.00 | 0.15 | 0.00 | 97 | 1012.1 |
| 20260505001835 | 54 | 278 | 0.0 | 0.0 | 0.00 | 0.15 | 0.00 | 97 | 1012.1 |
| 20260505001335 | 54 | 278 | 0.0 | 0.0 | 0.00 | 0.15 | 0.00 | 97 | 1012.1 |
| 20260505000335 | 54 | 278 | 0.0 | 0.0 | 0.00 | 0.15 | 0.00 | 97 | 1012.2 |
| 20260504235836 | 54 | 278 | 0.0 | 0.0 | 0.00 | 0.15 | 0.00 | 97 | 1012.2 |
| 20260504234335 | 54 | 278 | 0.0 | 0.0 | 0.00 | 0.15 | 0.00 | 97 | 1012.3 |
| 20260504232838 | 54 | 278 | 0.0 | 0.0 | 0.00 | 0.15 | 0.00 | 97 | 1012.4 |
| 20260504232335 | 54 | 278 | 0.0 | 0.0 | 0.00 | 0.15 | 0.00 | 97 | 1012.6 |
| 20260504231835 | 54 | 278 | 0.0 | 2.0 | 0.00 | 0.15 | 0.00 | 97 | 1012.6 |
| 20260504230836 | 54 | 278 | 0.0 | 2.0 | 0.00 | 0.15 | 0.00 | 97 | 1012.6 |
| 20260504230335 | 54 | 278 | 0.0 | 0.0 | 0.00 | 0.15 | 0.00 | 97 | 1012.6 |
| 20260504225837 | 54 | 278 | 0.0 | 0.0 | 0.00 | 0.15 | 0.00 | 97 | 1012.6 |
| 20260504223335 | 54 | 278 | 0.0 | 0.0 | 0.00 | 0.15 | 0.00 | 96 | 1012.9 |
| 20260504222838 | 54 | 278 | 0.0 | 0.0 | 0.00 | 0.15 | 0.00 | 96 | 1012.9 |
| 20260504222335 | 54 | 278 | 0.0 | 0.0 | 0.00 | 0.15 | 0.00 | 96 | 1013.0 |
| 20260504221836 | 54 | 278 | 0.0 | 0.0 | 0.00 | 0.15 | 0.00 | 96 | 1013.0 |
| 20260504220835 | 54 | 278 | 0.0 | 0.0 | 0.00 | 0.15 | 0.00 | 96 | 1013.1 |
| 20260504220337 | 54 | 278 | 0.0 | 0.0 | 0.00 | 0.15 | 0.00 | 96 | 1013.1 |
| 20260504214835 | 54 | 278 | 0.0 | 0.0 | 0.00 | 0.15 | 0.15 | 96 | 1013.3 |
| 20260504214336 | 55 | 278 | 0.0 | 0.0 | 0.00 | 0.15 | 0.15 | 96 | 1013.3 |
| 20260504213336 | 55 | 183 | 0.0 | 0.0 | 0.00 | 0.15 | 0.15 | 95 | 1013.3 |
| 20260504211836 | 55 | 183 | 0.0 | 0.0 | 0.00 | 0.15 | 0.15 | 95 | 1013.3 |
| 20260504210335 | 55 | 183 | 0.0 | 0.0 | 0.00 | 0.15 | 0.15 | 95 | 1013.4 |
| 20260504205336 | 55 | 183 | 0.0 | 0.0 | 0.00 | 0.15 | 0.15 | 95 | 1013.5 |